Location: Lombard
(41.8800°N, 88.0080°W)
Time: 03:49:40
(UTC-05:00)

Vanguard 2 Rocket - Pass Details

Date: 29 February 2024
Orbit: 555 x 3307 km, 32.9° (Epoch: 12 April)

Event Time Altitude Azimuth Distance (km) Brightness Sun altitude
Rises 16:27:02 0° 267° (W) 4,594 12.0 12.5°
Reaches altitude 10° 16:29:41 10° 262° (W) 3,913 12.2 12.1°
Maximum altitude 16:40:17 52° 191° (S) 2,801 9.8 10.2°
Drops below altitude 10° 16:57:20 10° 122° (ESE) 6,060 10.7 7.2°
Sets 17:02:38 0° 119° (ESE) 7,233 11.1 6.3°
